Location: Fredericksburg
(30.2750°N, 98.8720°W)
Time: 04:34:51
(UTC-05:00)

PCSat - Visible Passes

Search period start: 28 June 2016 00:00
Search period end: 08 July 2016 00:00
Orbit: 785 x 795 km, 67.1° (Epoch: 27 June)

Date Brightness Start Highest point End Pass type
(mag) Time Alt. Az. Time Alt. Az. Time Alt. Az.
28 Jun 10.9 02:44:53 35° NE 02:44:53 35° NE 02:48:07 10° NNE visible
28 Jun 11.5 04:25:36 15° WNW 04:26:33 15° NW 04:29:44 10° NNW visible
29 Jun 11.5 02:14:49 23° NE 02:14:49 23° NE 02:17:06 10° NE visible
29 Jun 11.2 03:55:31 22° WNW 03:55:32 22° WNW 03:59:39 10° N visible
30 Jun 11.9 01:44:43 15° ENE 01:44:43 15° ENE 01:45:52 10° NE visible
30 Jun 11.0 03:25:25 29° NW 03:25:25 29° NW 03:29:19 10° N visible
01 Jul 10.9 02:55:17 34° NNW 02:55:17 34° NNW 02:58:48 10° N visible
02 Jul 11.0 02:25:06 33° N 02:25:06 33° N 02:28:10 10° NNE visible
03 Jul 11.3 01:54:52 29° NNE 01:54:52 29° NNE 01:57:24 10° NNE visible
03 Jul 12.1 03:35:47 10° NW 03:36:03 10° NW 03:36:19 10° NW visible
04 Jul 11.6 01:24:37 22° NE 01:24:37 22° NE 01:26:32 10° NNE visible
04 Jul 11.8 03:05:18 14° NW 03:05:18 14° NW 03:07:54 10° NNW visible
05 Jul 11.8 00:54:18 17° NE 00:54:18 17° NE 00:55:31 10° NE visible
05 Jul 11.7 02:34:59 19° NW 02:34:59 19° NW 02:37:55 10° N visible
06 Jul 12.0 00:23:56 12° NE 00:23:56 12° NE 00:24:21 10° NE visible
06 Jul 11.5 02:04:38 24° NNW 02:04:38 24° NNW 02:07:37 10° N visible
07 Jul 11.4 01:34:13 28° NNW 01:34:13 28° NNW 01:37:07 10° N visible
